map of AHU home
Great Circle Mapper logo
AHU - Airport
Location
City:  Al Hoceima, Morocco
Name:Cherif al Idrissi
ICAO / IATA:GMTA / AHU

Details
Type:Airport (Aerodrome, Airfield)
Use:Public/Civil, International (customs port of entry)
Latitude:3510'38"N (35.177103)
Longitude:350'22"W (-3.839524)
Datum:WGS 1984
Elevation:95 ft (29 m)
Runways:1
Longest:8202 × 148 ft (2500 × 45 m), paved

Time
Time Zone:UTC+0 (DST+1)
Local Time:

Weather
METAR:GMTA 241200Z 36006KT 9999 FEW020 22/19 Q1017 NOSIG
TAF:GMTA 241100Z 2412/2518 02008KT CAVOK
BECMG 2418/2421 VRB02KT PROB40 2422/2508 2000 BR
BECMG 2510/2514 36010KT

Related Locations
Nearby:
Farthest:NZOX: 12354 mi / 19882 km
Okiwi Station, NZ

Find:

   beyond  
but within

Other Information
Maps:
NOTAMs:
Links:
Sources:

  
flag of Morocco   

Sectional Chart

Flight Planning
at skyvector.com

Satellite Image

Google Maps Satellite View

 

Copyright © 2004-2014 Karl L. Swartz. All rights reserved.
The Great Circle Mapper name and logo are trademarks of the Great Circle Mapper.
All other trademarks mentioned herein belong to their respective owners.
Please see credits for attibutions and further copyright information.

  Follow gcmap on Facebook Follow gcmap on Twitter

hCard Microformat

Geo Microformat